Location: Brantley
(31.5822°N, 86.2569°W)
Time: 17:47:48
(UTC+00:00)

Transit 2A Rocket - Pass Details

Date: 21 February 2026
Orbit: 583 x 900 km, 66.7° (Epoch: 12 March)

Event Time Altitude Azimuth Distance (km) Brightness Sun altitude
Rises 06:55:18 0° 326° (NNW) 3,255 - -65.2°
Reaches altitude 10° 06:57:54 10° 320° (NW) 2,271 - -64.9°
Maximum altitude 07:02:44 41° 251° (WSW) 1,005 - -64.3°
Drops below altitude 10° 07:07:08 10° 181° (S) 2,067 - -63.7°
Sets 07:09:25 0° 174° (S) 2,931 - -63.3°
